TBA9996 ZYTX-ZULS

Flight info

Callsign TBA9996
Flight time N/A
Altitude 34100
Route OMD63D OMDUS A575 CHG G332 MUDAM G212 BUMDU W47 ASAVA W45 RUSDO/K0856S1100 W45 VAGBI B215 GODON W43 SAVPA W696 MENED W276 ANRUG W279 ONEBA G212 JTG W236 CTU B213 KAMAX/K0841S1160 B213 IGELA W522 IGDAG IGD10A
Aircraft A319/M-SDE3FGHIRWY/LB1

Departure

Time N/A
Airport Shenyang Taoxian International Airport (ZYTX)

Arrival

Time 2026-04-28 13:05
Airport Lhasa Gonggar International Airport (ZULS)
Time Latitude Longitude Altitude Speed Heading
2026-04-28 11:09 31.21130 104.93706 34212 ft 436 kts 235°
2026-04-28 11:09 31.19660 104.91262 34213 ft 437 kts 234°
2026-04-28 11:10 31.16169 104.85465 34214 ft 436 kts 235°
2026-04-28 11:10 31.12707 104.79724 34215 ft 437 kts 235°
2026-04-28 11:11 31.09189 104.73898 34217 ft 436 kts 234°
2026-04-28 11:11 31.05693 104.68122 34219 ft 436 kts 234°
2026-04-28 11:12 31.02171 104.62446 34220 ft 435 kts 233°
2026-04-28 11:12 30.98552 104.56773 34222 ft 436 kts 233°
2026-04-28 11:13 30.94913 104.51064 34219 ft 438 kts 233°
2026-04-28 11:13 30.91292 104.45396 34215 ft 438 kts 233°
2026-04-28 11:14 30.87644 104.39704 34213 ft 437 kts 233°
2026-04-28 11:14 30.83940 104.34083 34214 ft 437 kts 232°
2026-04-28 11:15 30.80235 104.28509 34217 ft 437 kts 232°
2026-04-28 11:15 30.76532 104.22948 34216 ft 437 kts 232°
2026-04-28 11:16 30.72790 104.17337 34217 ft 437 kts 232°
2026-04-28 11:16 30.69081 104.11786 34214 ft 437 kts 232°
2026-04-28 11:17 30.65320 104.06168 34224 ft 437 kts 232°
2026-04-28 11:17 30.61690 104.00482 34214 ft 437 kts 240°
2026-04-28 11:18 30.59238 103.93991 34221 ft 439 kts 256°
2026-04-28 11:18 30.58957 103.90433 34230 ft 445 kts 269°
2026-04-28 11:18 30.59449 103.86848 34235 ft 451 kts 282°
2026-04-28 11:19 30.61375 103.79881 34239 ft 453 kts 284°
2026-04-28 11:19 30.63353 103.72899 34241 ft 454 kts 284°
2026-04-28 11:20 30.65227 103.65906 34261 ft 452 kts 282°
2026-04-28 11:20 30.66938 103.58903 34267 ft 451 kts 282°
2026-04-28 11:21 30.68638 103.51874 34281 ft 452 kts 282°
2026-04-28 11:21 30.70324 103.44888 34296 ft 451 kts 282°
2026-04-28 11:22 30.72021 103.37846 34340 ft 450 kts 282°
2026-04-28 11:22 30.73701 103.30833 34398 ft 449 kts 281°
2026-04-28 11:23 30.75375 103.23817 34439 ft 448 kts 281°
2026-04-28 11:23 30.77037 103.16829 34512 ft 449 kts 281°
2026-04-28 11:24 30.78695 103.09756 34526 ft 447 kts 279°
2026-04-28 11:24 30.79880 103.02651 34545 ft 443 kts 274°
2026-04-28 11:25 30.80426 102.95531 34559 ft 439 kts 269°
2026-04-28 11:25 30.80415 102.88451 34554 ft 438 kts 266°
2026-04-28 11:26 30.80282 102.81352 34561 ft 437 kts 265°
2026-04-28 11:26 30.80148 102.74284 34546 ft 436 kts 265°
2026-04-28 11:27 30.80016 102.67179 34541 ft 437 kts 266°
2026-04-28 11:27 30.79882 102.60120 34543 ft 437 kts 265°
2026-04-28 11:28 30.79745 102.53042 34554 ft 436 kts 265°
2026-04-28 11:28 30.79602 102.45985 34560 ft 436 kts 265°
2026-04-28 11:29 30.79451 102.38953 34552 ft 434 kts 265°
2026-04-28 11:29 30.79297 102.31901 34554 ft 435 kts 265°
2026-04-28 11:30 30.79141 102.24905 34553 ft 433 kts 265°
2026-04-28 11:30 30.78899 102.14385 34532 ft 433 kts 265°
2026-04-28 11:31 30.78730 102.07429 34511 ft 431 kts 265°
2026-04-28 11:31 30.78556 102.00434 34511 ft 432 kts 265°
2026-04-28 11:32 30.78398 101.93481 34525 ft 433 kts 266°
2026-04-28 11:32 30.78641 101.86499 34528 ft 435 kts 271°
2026-04-28 11:33 30.79225 101.79471 34542 ft 436 kts 272°
2026-04-28 11:33 30.79810 101.72452 34569 ft 436 kts 272°
2026-04-28 11:34 30.80391 101.65434 34582 ft 434 kts 272°
2026-04-28 11:34 30.80963 101.58483 34581 ft 434 kts 271°
2026-04-28 11:35 30.81532 101.51481 34595 ft 434 kts 272°
2026-04-28 11:35 30.82093 101.44524 34605 ft 434 kts 272°
2026-04-28 11:36 30.82659 101.37506 34605 ft 433 kts 272°
2026-04-28 11:36 30.83215 101.30524 34606 ft 433 kts 271°
2026-04-28 11:37 30.83767 101.23553 34603 ft 433 kts 271°
2026-04-28 11:37 30.84313 101.16591 34597 ft 434 kts 271°
2026-04-28 11:38 30.84861 101.09594 34607 ft 433 kts 271°
2026-04-28 11:38 30.85403 101.02589 34619 ft 433 kts 271°
2026-04-28 11:39 30.85939 100.95635 34630 ft 432 kts 271°
2026-04-28 11:39 30.86473 100.88659 34641 ft 432 kts 271°
2026-04-28 11:40 30.87000 100.81714 34642 ft 433 kts 271°
2026-04-28 11:40 30.87527 100.74721 34641 ft 432 kts 272°
2026-04-28 11:41 30.88049 100.67750 34635 ft 432 kts 272°
2026-04-28 11:41 30.88566 100.60811 34627 ft 432 kts 272°
2026-04-28 11:42 30.89084 100.53814 34639 ft 433 kts 272°
2026-04-28 11:42 30.89595 100.46827 34648 ft 434 kts 272°
2026-04-28 11:43 30.90102 100.39827 34660 ft 436 kts 272°
2026-04-28 11:43 30.90609 100.32775 34657 ft 435 kts 272°
2026-04-28 11:44 30.91111 100.25751 34668 ft 434 kts 272°
2026-04-28 11:44 30.91607 100.18753 34674 ft 434 kts 272°
2026-04-28 11:45 30.92095 100.11771 34677 ft 434 kts 272°
2026-04-28 11:45 30.92581 100.04767 34690 ft 434 kts 272°
2026-04-28 11:46 30.93082 99.97738 34705 ft 435 kts 273°
2026-04-28 11:46 30.93651 99.90726 34699 ft 435 kts 273°
2026-04-28 11:47 30.94216 99.83739 34704 ft 434 kts 273°
2026-04-28 11:47 30.94768 99.76740 34700 ft 435 kts 274°
2026-04-28 11:48 30.95318 99.69733 34707 ft 435 kts 274°
2026-04-28 11:48 30.95861 99.62710 34712 ft 436 kts 274°
2026-04-28 11:49 30.96400 99.55695 34707 ft 435 kts 274°
2026-04-28 11:49 30.96933 99.48732 34709 ft 435 kts 275°
2026-04-28 11:50 30.97468 99.41678 34702 ft 435 kts 274°
2026-04-28 11:50 30.97997 99.34658 34697 ft 435 kts 274°
2026-04-28 11:51 30.98517 99.27651 34707 ft 435 kts 275°
2026-04-28 11:51 30.99042 99.20581 34717 ft 435 kts 275°
2026-04-28 11:52 30.99556 99.13568 34711 ft 435 kts 275°
2026-04-28 11:52 31.00072 99.06522 34696 ft 436 kts 275°
2026-04-28 11:53 31.00583 98.99490 34699 ft 437 kts 275°
2026-04-28 11:53 31.01086 98.92452 34693 ft 437 kts 275°
2026-04-28 11:54 31.01590 98.85386 34714 ft 436 kts 275°
2026-04-28 11:54 31.02089 98.78307 34751 ft 437 kts 276°
2026-04-28 11:55 31.02581 98.71265 34766 ft 436 kts 276°
2026-04-28 11:55 31.03082 98.64254 34757 ft 435 kts 276°
2026-04-28 11:56 31.03677 98.57244 34737 ft 434 kts 277°
2026-04-28 11:56 31.04270 98.50243 34733 ft 434 kts 277°
2026-04-28 11:57 31.04857 98.43188 34737 ft 435 kts 277°
2026-04-28 11:57 31.05432 98.36174 34744 ft 435 kts 277°
2026-04-28 11:58 31.06003 98.29114 34749 ft 434 kts 277°
2026-04-28 11:58 31.06565 98.22087 34757 ft 435 kts 277°
2026-04-28 11:59 31.07126 98.15058 34758 ft 435 kts 277°
2026-04-28 11:59 31.07693 98.08018 34664 ft 434 kts 277°
2026-04-28 12:00 31.08273 98.00943 34746 ft 434 kts 277°
2026-04-28 12:00 31.08841 97.93882 34764 ft 433 kts 277°
2026-04-28 12:01 31.09398 97.86899 34763 ft 434 kts 277°
2026-04-28 12:01 31.09957 97.79825 34762 ft 435 kts 277°
2026-04-28 12:02 31.10533 97.72767 34766 ft 435 kts 277°
2026-04-28 12:02 31.11104 97.65682 34764 ft 435 kts 277°
2026-04-28 12:03 31.11651 97.58669 34766 ft 435 kts 277°
2026-04-28 12:03 31.12192 97.51611 34771 ft 434 kts 277°
2026-04-28 12:04 31.12719 97.44590 34771 ft 434 kts 277°
2026-04-28 12:04 31.13242 97.37568 34771 ft 435 kts 277°
2026-04-28 12:05 31.13765 97.30512 34776 ft 435 kts 277°
2026-04-28 12:05 31.14071 97.23481 34783 ft 436 kts 272°
2026-04-28 12:06 31.13779 97.16315 34788 ft 439 kts 267°
2026-04-28 12:06 31.12871 97.09266 34899 ft 442 kts 262°
2026-04-28 12:07 31.12182 97.05740 34731 ft 443 kts 260°
2026-04-28 12:07 31.11449 97.02290 34759 ft 444 kts 260°
2026-04-28 12:07 31.09949 96.95319 34807 ft 443 kts 260°
2026-04-28 12:08 31.09197 96.91822 34667 ft 443 kts 260°
2026-04-28 12:08 31.08435 96.88279 34725 ft 444 kts 259°
2026-04-28 12:08 31.06925 96.81280 34767 ft 444 kts 259°
2026-04-28 12:09 31.05413 96.74299 34779 ft 444 kts 259°
2026-04-28 12:09 31.03900 96.67336 34777 ft 443 kts 259°
2026-04-28 12:10 31.02379 96.60355 34779 ft 444 kts 259°
2026-04-28 12:10 31.00853 96.53385 34785 ft 444 kts 259°
2026-04-28 12:11 30.99327 96.46434 34786 ft 444 kts 259°
2026-04-28 12:11 30.97812 96.39449 34768 ft 444 kts 259°
2026-04-28 12:12 30.97081 96.35944 34896 ft 444 kts 260°
2026-04-28 12:12 30.96348 96.32426 34723 ft 444 kts 259°
2026-04-28 12:12 30.94882 96.25429 34775 ft 444 kts 259°
2026-04-28 12:13 30.94139 96.21909 34916 ft 444 kts 259°
2026-04-28 12:13 30.93397 96.18411 34834 ft 443 kts 259°
2026-04-28 12:13 30.91914 96.11454 34791 ft 444 kts 259°
2026-04-28 12:14 30.90421 96.04468 34679 ft 443 kts 259°
2026-04-28 12:14 30.88933 95.97608 34827 ft 443 kts 259°
2026-04-28 12:15 30.87406 95.90636 34794 ft 442 kts 259°
2026-04-28 12:15 30.85888 95.83632 34785 ft 442 kts 259°
2026-04-28 12:16 30.84380 95.76679 34786 ft 441 kts 259°
2026-04-28 12:16 30.82896 95.69697 34781 ft 441 kts 260°
2026-04-28 12:17 30.81475 95.62723 34771 ft 441 kts 260°
2026-04-28 12:17 30.80058 95.55821 34760 ft 441 kts 260°
2026-04-28 12:18 30.78616 95.48841 34757 ft 441 kts 260°
2026-04-28 12:18 30.77166 95.41860 34751 ft 440 kts 260°
2026-04-28 12:19 30.75713 95.34888 34750 ft 441 kts 260°
2026-04-28 12:19 30.74265 95.27943 34749 ft 441 kts 260°
2026-04-28 12:20 30.72812 95.20995 34745 ft 440 kts 260°
2026-04-28 12:20 30.71344 95.14002 34741 ft 441 kts 260°
2026-04-28 12:21 30.69876 95.07035 34737 ft 439 kts 260°
2026-04-28 12:21 30.68408 95.00095 34732 ft 440 kts 260°
2026-04-28 12:22 30.66944 94.93188 34738 ft 438 kts 260°
2026-04-28 12:22 30.65478 94.86291 34744 ft 438 kts 260°
2026-04-28 12:23 30.64013 94.79414 34751 ft 438 kts 260°
2026-04-28 12:23 30.62533 94.72498 34765 ft 437 kts 260°
2026-04-28 12:24 30.61056 94.65609 34766 ft 438 kts 260°
2026-04-28 12:24 30.59583 94.58755 34781 ft 437 kts 259°
2026-04-28 12:25 30.58094 94.51864 34789 ft 436 kts 260°
2026-04-28 12:25 30.56618 94.45042 34792 ft 435 kts 260°
2026-04-28 12:26 30.55135 94.38205 34796 ft 435 kts 260°
2026-04-28 12:26 30.53640 94.31341 34838 ft 436 kts 259°
2026-04-28 12:27 30.52149 94.24501 34845 ft 435 kts 259°
2026-04-28 12:27 30.50660 94.17622 34845 ft 433 kts 260°
2026-04-28 12:28 30.49266 94.10838 34820 ft 433 kts 260°
2026-04-28 12:28 30.47858 94.04005 34799 ft 434 kts 260°
2026-04-28 12:29 30.45735 93.93813 34824 ft 433 kts 260°
2026-04-28 12:30 30.44317 93.87041 34822 ft 432 kts 260°
2026-04-28 12:30 30.42874 93.80186 34850 ft 433 kts 260°
2026-04-28 12:31 30.41448 93.73432 34867 ft 431 kts 260°
2026-04-28 12:31 30.40011 93.66661 34871 ft 432 kts 260°
2026-04-28 12:32 30.38500 93.59922 34869 ft 433 kts 257°
2026-04-28 12:32 30.36560 93.53325 34869 ft 433 kts 255°
2026-04-28 12:33 30.34547 93.46794 34887 ft 433 kts 255°
2026-04-28 12:33 30.32501 93.40183 34876 ft 433 kts 255°
2026-04-28 12:34 30.30460 93.33604 34875 ft 433 kts 254°
2026-04-28 12:34 30.28426 93.27042 34869 ft 433 kts 254°
2026-04-28 12:35 30.26381 93.20471 34874 ft 432 kts 254°
2026-04-28 12:35 30.24330 93.13917 34882 ft 433 kts 254°
2026-04-28 12:36 30.22276 93.07363 34893 ft 432 kts 254°
2026-04-28 12:36 30.20206 93.00773 34887 ft 431 kts 254°
2026-04-28 12:37 30.18177 92.94270 34883 ft 430 kts 254°
2026-04-28 12:37 30.16155 92.87806 34882 ft 430 kts 254°
2026-04-28 12:38 30.14108 92.81302 34883 ft 431 kts 254°
2026-04-28 12:38 30.12048 92.74777 34883 ft 431 kts 254°
2026-04-28 12:39 30.09993 92.68289 34882 ft 431 kts 254°
2026-04-28 12:39 30.07913 92.61748 34882 ft 432 kts 254°
2026-04-28 12:40 30.05858 92.55232 34884 ft 432 kts 255°
2026-04-28 12:40 30.03836 92.48666 34893 ft 433 kts 254°
2026-04-28 12:41 30.01820 92.42161 34857 ft 427 kts 254°
2026-04-28 12:41 30.00834 92.39005 34553 ft 418 kts 255°
2026-04-28 12:41 29.99844 92.35835 33848 ft 415 kts 255°
2026-04-28 12:41 29.98895 92.32790 33204 ft 411 kts 254°
2026-04-28 12:42 29.97927 92.29684 32570 ft 407 kts 254°
2026-04-28 12:42 29.96981 92.26647 31898 ft 405 kts 254°
2026-04-28 12:42 29.96014 92.23554 31193 ft 404 kts 254°
2026-04-28 12:42 29.95050 92.20476 30487 ft 403 kts 254°
2026-04-28 12:43 29.94105 92.17467 29769 ft 403 kts 253°
2026-04-28 12:43 29.93150 92.14421 29035 ft 403 kts 253°
2026-04-28 12:43 29.92204 92.11417 28360 ft 402 kts 253°
2026-04-28 12:43 29.91249 92.08391 27727 ft 399 kts 252°
2026-04-28 12:44 29.90313 92.05422 27131 ft 395 kts 252°
2026-04-28 12:44 29.89359 92.02422 26526 ft 392 kts 252°
2026-04-28 12:44 29.88421 91.99503 25917 ft 389 kts 251°
2026-04-28 12:44 29.87481 91.96571 25411 ft 385 kts 251°
2026-04-28 12:45 29.86557 91.93684 25286 ft 385 kts 252°
2026-04-28 12:45 29.85638 91.90801 25168 ft 386 kts 252°
2026-04-28 12:45 29.84718 91.87898 24905 ft 384 kts 251°
2026-04-28 12:45 29.83807 91.85031 24652 ft 383 kts 251°
2026-04-28 12:46 29.82887 91.82130 24394 ft 381 kts 251°
2026-04-28 12:46 29.81996 91.79281 24142 ft 380 kts 252°
2026-04-28 12:46 29.81110 91.76433 23902 ft 380 kts 252°
2026-04-28 12:46 29.80222 91.73577 23663 ft 378 kts 252°
2026-04-28 12:47 29.79323 91.70696 23424 ft 378 kts 251°
2026-04-28 12:47 29.78441 91.67871 23185 ft 377 kts 251°
2026-04-28 12:47 29.77541 91.64996 22944 ft 377 kts 251°
2026-04-28 12:47 29.76640 91.62129 22696 ft 376 kts 251°
2026-04-28 12:48 29.75752 91.59304 22454 ft 375 kts 251°
2026-04-28 12:48 29.74862 91.56473 22338 ft 375 kts 251°
2026-04-28 12:48 29.73976 91.53655 22324 ft 376 kts 251°
2026-04-28 12:48 29.73074 91.50790 22321 ft 376 kts 251°
2026-04-28 12:49 29.72191 91.47976 22336 ft 377 kts 251°
2026-04-28 12:49 29.71298 91.45143 22300 ft 378 kts 249°
2026-04-28 12:49 29.70064 91.42497 22069 ft 378 kts 236°
2026-04-28 12:49 29.68316 91.40218 21859 ft 379 kts 224°
2026-04-28 12:50 29.66190 91.38460 21652 ft 380 kts 211°
2026-04-28 12:50 29.63712 91.37260 21444 ft 382 kts 198°
2026-04-28 12:50 29.61097 91.36734 21249 ft 383 kts 185°
2026-04-28 12:50 29.58442 91.36893 21059 ft 384 kts 172°
2026-04-28 12:51 29.55864 91.37723 20874 ft 385 kts 161°
2026-04-28 12:51 29.53379 91.38866 20686 ft 384 kts 158°
2026-04-28 12:51 29.50878 91.40069 20509 ft 382 kts 158°
2026-04-28 12:51 29.48423 91.41247 20263 ft 381 kts 158°
2026-04-28 12:52 29.45964 91.42410 19978 ft 379 kts 158°
2026-04-28 12:52 29.43527 91.43552 19696 ft 376 kts 158°
2026-04-28 12:52 29.41077 91.44692 19410 ft 374 kts 159°
2026-04-28 12:52 29.38686 91.45802 19087 ft 367 kts 158°
2026-04-28 12:53 29.36269 91.46634 18727 ft 360 kts 174°
2026-04-28 12:53 29.33774 91.46446 18401 ft 352 kts 195°
2026-04-28 12:53 29.31584 91.45283 18140 ft 344 kts 215°
2026-04-28 12:53 29.29914 91.43372 17909 ft 340 kts 235°
2026-04-28 12:54 29.28911 91.40910 17704 ft 342 kts 255°
2026-04-28 12:54 29.28688 91.38216 17514 ft 342 kts 273°
2026-04-28 12:54 29.28896 91.35465 17305 ft 343 kts 276°
2026-04-28 12:54 29.29141 91.32748 17097 ft 343 kts 275°
2026-04-28 12:55 29.29370 91.30021 16906 ft 342 kts 275°
2026-04-28 12:55 29.29586 91.27302 16852 ft 343 kts 275°
2026-04-28 12:55 29.29796 91.24556 16854 ft 341 kts 275°
2026-04-28 12:55 29.29998 91.21893 16842 ft 326 kts 275°
2026-04-28 12:56 29.30188 91.19331 16838 ft 317 kts 274°
2026-04-28 12:56 29.30372 91.16811 16839 ft 316 kts 274°
2026-04-28 12:56 29.30552 91.14297 16833 ft 307 kts 274°
2026-04-28 12:56 29.30722 91.11921 16831 ft 294 kts 274°
2026-04-28 12:57 29.30886 91.09599 16834 ft 290 kts 274°
2026-04-28 12:57 29.31052 91.07275 16839 ft 290 kts 274°
2026-04-28 12:57 29.31212 91.04997 16838 ft 290 kts 274°
2026-04-28 12:57 29.31378 91.02688 16840 ft 291 kts 275°
2026-04-28 12:58 29.31652 91.00360 16837 ft 292 kts 280°
2026-04-28 12:58 29.32095 90.98081 16837 ft 285 kts 285°
2026-04-28 12:58 29.32674 90.95954 16838 ft 271 kts 289°
2026-04-28 12:58 29.33376 90.93954 16828 ft 268 kts 294°
2026-04-28 12:59 29.34197 90.92055 16668 ft 267 kts 299°
2026-04-28 12:59 29.35155 90.90214 16350 ft 267 kts 303°
2026-04-28 12:59 29.36191 90.88527 16048 ft 268 kts 306°
2026-04-28 12:59 29.37148 90.86689 15727 ft 267 kts 289°
2026-04-28 13:00 29.37432 90.84620 15413 ft 265 kts 266°
2026-04-28 13:00 29.37297 90.82521 15110 ft 265 kts 263°
2026-04-28 13:00 29.37036 90.80444 14770 ft 258 kts 259°
2026-04-28 13:00 29.36659 90.78482 14532 ft 243 kts 255°
2026-04-28 13:01 29.36004 90.76766 14203 ft 230 kts 232°
2026-04-28 13:01 29.34847 90.75601 13881 ft 212 kts 207°
2026-04-28 13:01 29.33495 90.75125 13523 ft 194 kts 184°
2026-04-28 13:01 29.32211 90.75259 13195 ft 180 kts 162°
2026-04-28 13:02 29.31111 90.75857 12845 ft 170 kts 143°
2026-04-28 13:02 29.30299 90.76769 12619 ft 159 kts 125°
2026-04-28 13:02 29.29798 90.77902 12733 ft 159 kts 106°
2026-04-28 13:02 29.29565 90.79149 12916 ft 160 kts 95°
2026-04-28 13:03 29.29632 90.80443 13078 ft 162 kts 89°
2026-04-28 13:03 29.29604 90.81724 12965 ft 161 kts 92°
2026-04-28 13:03 29.29636 90.83025 12895 ft 162 kts 88°
2026-04-28 13:03 29.29682 90.84303 12669 ft 161 kts 88°
2026-04-28 13:04 29.29718 90.85609 12483 ft 161 kts 90°
2026-04-28 13:04 29.29737 90.86897 12306 ft 161 kts 89°
2026-04-28 13:04 29.29759 90.88193 12123 ft 160 kts 90°
2026-04-28 13:04 29.29783 90.89462 11921 ft 158 kts 90°
2026-04-28 13:05 29.29796 90.90568 11918 ft 114 kts 89°
2026-04-28 13:05 29.29806 90.91093 11910 ft 43 kts 89°
2026-04-28 13:05 29.29810 90.91409 11910 ft 37 kts 89°
2026-04-28 13:05 29.29813 90.91689 11909 ft 33 kts 89°
2026-04-28 13:06 29.29819 90.91944 11909 ft 30 kts 88°
2026-04-28 13:06 29.29824 90.92187 11908 ft 29 kts 87°
2026-04-28 13:06 29.29828 90.92426 11908 ft 29 kts 89°
2026-04-28 13:06 29.29831 90.92662 11907 ft 29 kts 89°
2026-04-28 13:07 29.29780 90.92873 11907 ft 27 kts 153°
2026-04-28 13:07 29.29670 90.92863 11907 ft 18 kts 264°
2026-04-28 13:07 29.29670 90.92720 11907 ft 17 kts 270°
2026-04-28 13:07 29.29666 90.92580 11907 ft 17 kts 267°
2026-04-28 13:08 29.29662 90.92440 11907 ft 17 kts 269°
2026-04-28 13:08 29.29659 90.92300 11908 ft 17 kts 269°
2026-04-28 13:08 29.29658 90.92162 11908 ft 17 kts 269°
2026-04-28 13:08 29.29656 90.92024 11908 ft 17 kts 269°
2026-04-28 13:09 29.29654 90.91886 11909 ft 17 kts 270°
2026-04-28 13:09 29.29653 90.91747 11909 ft 17 kts 269°
2026-04-28 13:09 29.29651 90.91612 11909 ft 17 kts 268°
2026-04-28 13:09 29.29647 90.91473 11909 ft 17 kts 269°
2026-04-28 13:10 29.29646 90.91338 11910 ft 17 kts 269°
2026-04-28 13:10 29.29643 90.91201 11910 ft 16 kts 268°
2026-04-28 13:10 29.29641 90.91070 11912 ft 16 kts 270°
2026-04-28 13:10 29.29640 90.90945 11915 ft 14 kts 269°
2026-04-28 13:11 29.29638 90.90833 11917 ft 13 kts 268°
2026-04-28 13:11 29.29636 90.90730 11919 ft 12 kts 269°
2026-04-28 13:11 29.29635 90.90632 11920 ft 12 kts 269°
2026-04-28 13:11 29.29634 90.90530 11921 ft 12 kts 269°
2026-04-28 13:12 29.29632 90.90424 11921 ft 13 kts 269°
2026-04-28 13:12 29.29630 90.90311 11921 ft 14 kts 268°
2026-04-28 13:12 29.29628 90.90182 11919 ft 17 kts 269°
2026-04-28 13:12 29.29620 90.90037 11919 ft 18 kts 238°
2026-04-28 13:13 29.29523 90.89970 11920 ft 15 kts 251°
2026-04-28 13:13 29.29507 90.89857 11921 ft 10 kts 209°
2026-04-28 13:13 29.29459 90.89857 11921 ft 2 kts 187°
2026-04-28 13:13 29.29445 90.89856 11921 ft 3 kts 179°
2026-04-28 13:14 29.29431 90.89857 11921 ft 0 kts 179°